EA2DUR Weather Reports


time (UTC)temp
F
wind
direction
speed
knots
gust
knots
rain 1hr
in
rain 24hr
in
rain mn
in
humidity
%
barometer
mb
20260504023033 50 24 6.1 9.6 0.00 0.00 0.00 97 945.5
20260504021529 50 59 6.1 9.6 0.00 0.00 0.00 97 945.5
20260504020028 51 42 5.2 7.8 0.00 0.00 0.00 97 945.3
20260504014536 51 36 2.6 7.0 0.00 0.00 0.00 97 945.4
20260504013026 51 17 5.2 9.6 0.00 0.00 0.00 97 945.3
20260504011525 51 360 2.6 6.1 0.00 0.00 0.00 97 945.4
20260504010028 51 336 3.5 7.0 0.00 0.00 0.00 97 945.4
20260504004524 51 18 3.5 7.8 0.00 0.00 0.00 97 945.1
20260504003030 51 355 4.3 8.7 0.00 0.00 0.00 97 945.2
20260504001521 51 42 3.5 10.4 0.00 0.00 0.00 97 945.3
20260504000018 51 47 5.2 7.0 0.00 0.00 0.00 97 945.4
20260503234530 51 12 4.3 7.0 0.00 0.00 0.00 97 945.6
20260503233015 51 33 5.2 8.7 0.00 0.00 0.00 97 945.5
20260503231514 51 50 4.3 8.7 0.00 0.00 0.00 97 945.6
20260503230012 51 40 4.3 8.7 0.00 0.00 0.00 97 945.5
20260503224508 52 45 5.2 8.7 0.00 0.00 0.00 97 945.6
20260503223006 53 84 1.7 6.1 0.00 0.00 0.00 98 945.4
20260503221504 52 30 2.6 5.2 0.00 0.00 0.00 97 945.4
20260503220101 52 57 1.7 2.6 0.00 0.00 0.00 98 945.3
20260503214601 52 113 0.9 1.7 0.00 0.00 0.00 97 945.0
20260503213109 52 113 0.0 1.7 0.00 0.00 0.00 97 945.0
20260503211559 52 287 0.9 2.6 0.00 0.00 0.00 97 944.9
20260503210109 52 76 0.0 0.9 0.00 0.00 0.00 97 944.9
20260503204608 52 76 0.0 0.9 0.00 0.00 0.00 96 944.6
20260503203103 52 76 0.0 2.6 0.00 0.00 0.00 96 944.4
20260503201558 52 45 1.7 3.5 0.00 0.00 0.00 96 944.4
20260503200058 53 54 2.6 4.3 0.00 0.00 0.00 96 944.4
20260503194553 53 59 2.6 4.3 0.00 0.00 0.00 96 944.4
20260503193056 53 82 1.7 2.6 0.00 0.00 0.00 96 944.4
20260503191608 53 42 1.7 4.3 0.00 0.00 0.00 95 944.0
20260503190051 54 46 1.7 2.6 0.00 0.00 0.00 95 943.9
20260503184558 54 355 2.6 5.2 0.00 0.00 0.00 95 943.6
20260503183110 53 212 1.7 4.3 0.00 0.00 0.00 95 943.3
20260503181550 54 127 0.9 2.6 0.00 0.00 0.00 95 943.3
20260503180049 54 180 1.7 7.0 0.00 0.00 0.00 95 943.8
20260503174548 54 294 6.1 7.8 0.00 0.00 0.00 95 943.6
20260503173112 54 140 5.2 9.6 0.00 0.00 0.00 94 943.6
20260503171549 54 124 5.2 9.6 0.00 0.00 0.00 94 943.8
20260503081500 57 231 1.7 4.3 0.00 0.00 0.00 89 946.3
20260503071551 55 184 1.7 5.2 0.00 0.00 0.00 94 946.3
20260503070103 54 196 0.9 3.5 0.00 0.00 0.00 94 946.4
20260503054545 52 223 0.9 3.5 0.00 0.00 0.00 96 946.1
20260503053042 52 248 0.9 2.6 0.00 0.00 0.00 95 945.9
20260503051540 53 265 1.7 3.5 0.00 0.00 0.00 95 945.9
20260503050038 53 176 0.9 3.5 0.00 0.00 0.00 95 945.8
20260503044537 53 232 2.6 3.5 0.00 0.00 0.00 95 945.9
20260503043041 53 242 0.9 5.2 0.00 0.00 0.00 95 945.9
20260503041536 53 212 0.9 2.6 0.00 0.00 0.00 94 945.8
20260503040045 53 178 0.9 5.2 0.00 0.00 0.00 95 946.0
20260503034545 53 194 1.7 4.3 0.00 0.00 0.00 94 946.0
20260503033039 53 179 1.7 4.3 0.00 0.00 0.00 94 946.1
20260503031538 54 192 0.9 5.2 0.00 0.00 0.00 94 946.1
20260503030038 54 217 1.7 3.5 0.00 0.00 0.00 94 946.1
20260503024529 54 223 1.7 4.3 0.00 0.00 0.00 94 946.1